Location: St. Louis
(38.6270°N, 90.1994°W)
Time: 02:20:38
(UTC-05:00)

N. Korean satellite - Visible Passes

Search period start: 28 October 2021 00:00
Search period end: 07 November 2021 00:00
Orbit: 450 x 494 km, 97.3° (Epoch: 27 October)

Date Brightness Start Highest point End Pass type
(mag) Time Alt. Az. Time Alt. Az. Time Alt. Az.
28 Oct 6.7 06:33:20 10° N 06:36:53 53° WNW 06:40:21 10° SSW visible
28 Oct 10.4 18:41:37 10° WSW 18:42:40 11° W 18:43:43 10° WNW visible
29 Oct 7.1 06:05:10 10° NNE 06:08:46 60° E 06:12:17 10° S visible
30 Oct 9.0 05:37:31 10° NE 05:40:31 24° E 05:43:29 10° SSE visible
31 Oct 10.2 05:11:15 10° ENE 05:12:10 11° E 05:13:03 10° ESE visible
31 Oct 7.0 06:42:09 10° N 06:45:33 39° WNW 06:48:53 10° SW visible
01 Nov 6.6 06:13:50 10° NNE 06:17:27 81° E 06:20:59 10° S visible
02 Nov 8.5 05:45:58 10° NNE 05:49:12 31° E 05:52:24 10° SSE visible
03 Nov 9.9 05:18:55 10° ENE 05:20:50 14° E 05:22:44 10° SE visible
03 Nov 7.3 06:50:56 10° N 06:54:07 30° WNW 06:57:14 10° SW visible
04 Nov 6.4 06:22:26 10° N 06:26:00 76° WNW 06:29:31 10° SSW visible
04 Nov 9.9 18:29:27 10° SW 18:31:38 15° W 18:33:52 10° NW visible
05 Nov 7.9 05:54:22 10° NNE 05:57:46 41° E 06:01:06 10° S visible
06 Nov 9.5 05:26:56 10° NE 05:29:24 18° E 05:31:50 10° SE visible
06 Nov 7.6 06:59:40 10° NNW 07:02:34 23° WNW 07:05:25 10° SW visible
